< < Back
Terminal Aerodrome Forecast


Current Version              Previous Versions:   1  2  3  4  5  6  7  8  9  

Terminal Aerodrome Forecast

234
FTUS42 KILM 291120
TAFILM
TAF
KILM 291120Z 2912/3012 35008KT P6SM SKC
     FM292000 26006KT P6SM FEW250
     FM300000 VRB03KT P6SM FEW150 SCT250=

Latest METAR

833
SAUS70 KWBC 300100 RRE
MTRILM
METAR KILM 300053Z 20004KT 10SM CLR 04/M01 A3033 RMK AO2 SLP270
T00441011


USA.gov is the U.S. government's official web portal to all federal, state and local government web resources and services.